Weather History for Driggs, ID

Change the Weather History Date:

Friday, September 13, 2013

  Actual Average (KRXE) Record (KRXE)
Temperature  
Mean Temperature 60 °F 57 °F  
Max Temperature 74 °F 73 °F 85 °F (2006)
Min Temperature 46 °F 41 °F 30 °F (2003)
Degree Days  
Heating Degree Days 5 9  
Month to date heating degree days 83  
Since 1 July heating degree days 156  
Cooling Degree Days 0 0  
Month to date cooling degree days 5  
Year to date cooling degree days 207  
Growing Degree Days 10 (Base 50)    
Moisture  
Dew Point 47 °F    
Average Humidity 63    
Maximum Humidity 94    
Minimum Humidity 34    
Precipitation  
Precipitation 0.06 in 0.03 in 1.06 in (1985)
Month to date precipitation 0.38  
Year to date precipitation 9.30  
Sea Level Pressure  
Sea Level Pressure 29.92 in    
Wind  
Wind Speed 6 mph (SE)    
Max Wind Speed 12 mph    
Max Gust Speed 17 mph    
Visibility 8 miles    
Events Rain , Thunderstorm    
T = Trace of Precipitation, MM = Missing Value Source: NWS Daily Summary

Daily Weather History Graph

Daily Weather History Graph

Search for Another Location

Airport:

Trip Planner

Search our weather history database for the weather conditions in past years. The results will help you decide how hot, cold, wet, or windy it might be!

Date:

Astronomy

Sep. 13, 2013 Rise Set
Actual Time 7:01 AM MDT 7:37 PM MDT
Civil Twilight 6:32 AM MDT 8:06 PM MDT
Nautical Twilight 5:58 AM MDT 8:40 PM MDT
Astronomical Twilight 5:23 AM MDT 9:16 PM MDT
Moon 3:39 PM MDT (9/13) 12:26 AM MDT (9/13)
Length of Visible Light 13h 33m
Length of Day
12h 35m
Waxing Gibbous, 62% of the Moon is Illuminated
Sep 13
Waxing Gibbous
Sep 19
Full
Sep 26
Last Quarter
Oct 4
New
Oct 11
First Quarter

Hourly Weather History & Observations

Time (MDT) Temp. Dew Point Humidity Pressure Visibility Wind Dir Wind Speed Gust Speed Precip Events Conditions
12:56 AM 57.9 °F 48.9 °F 72% 29.96 in 10.0 mi NE 5.8 mph - N/A   Overcast
1:56 AM 54.9 °F 47.8 °F 77% 29.94 in 10.0 mi NE 5.8 mph - N/A   Scattered Clouds
2:56 AM 52.0 °F 45.9 °F 80% 29.94 in 10.0 mi ENE 8.1 mph - N/A   Clear
3:56 AM 48.9 °F 43.9 °F 83% 29.96 in 10.0 mi ENE 6.9 mph - N/A   Clear
4:56 AM 47.8 °F 43.9 °F 86% 29.96 in 10.0 mi SE 3.5 mph - N/A   Partly Cloudy
5:56 AM 46.9 °F 43.0 °F 86% 29.94 in 10.0 mi Calm Calm - N/A   Clear
6:56 AM 46.9 °F 41.9 °F 83% 29.94 in 10.0 mi ESE 3.5 mph - N/A   Clear
7:56 AM 48.9 °F 45.9 °F 89% 29.95 in 10.0 mi East 5.8 mph - N/A   Clear
8:56 AM 52.9 °F 45.9 °F 77% 29.94 in 8.0 mi Calm Calm - N/A   Clear
9:56 AM 59.9 °F 45.9 °F 60% 29.93 in 9.0 mi Calm Calm - N/A   Partly Cloudy
10:56 AM 64.9 °F 45.9 °F 50% 29.89 in 10.0 mi WSW 4.6 mph - N/A   Partly Cloudy
11:56 AM 68.0 °F 45.0 °F 43% 29.86 in 8.0 mi WNW 6.9 mph - N/A   Clear
12:56 PM 70.9 °F 45.0 °F 39% 29.82 in 9.0 mi Variable 3.5 mph - N/A   Clear
1:56 PM 72.9 °F 45.0 °F 37% 29.80 in 8.0 mi Variable 5.8 mph - N/A   Clear
2:56 PM 72.9 °F 45.0 °F 37% 29.78 in 9.0 mi Variable 6.9 mph - N/A   Clear
3:43 PM 73.4 °F 44.6 °F 36% 30.01 in 8.0 mi Variable 3.5 mph - N/A Thunderstorm Clear
3:56 PM 74.8 °F 45.0 °F 34% 29.77 in 7.0 mi West 10.4 mph - N/A   Clear
4:33 PM 73.4 °F 44.6 °F 36% 29.99 in 9.0 mi WNW 10.4 mph - N/A Thunderstorm Clear
4:56 PM 72.9 °F 43.0 °F 34% 29.76 in 9.0 mi West 6.9 mph - N/A Thunderstorm Clear
5:21 PM 71.6 °F 42.8 °F 35% 30.00 in 9.0 mi Variable 4.6 mph - N/A   Scattered Clouds
5:32 PM 69.8 °F 46.4 °F 43% 30.00 in 10.0 mi South 5.8 mph - N/A Thunderstorm Mostly Cloudy
5:56 PM 66.9 °F 48.9 °F 52% 29.81 in 8.0 mi SSW 9.2 mph - N/A Thunderstorm Mostly Cloudy
6:14 PM 66.2 °F 48.2 °F 52% 30.02 in 9.0 mi SW 11.5 mph - N/A   Scattered Clouds
6:49 PM 64.4 °F 46.4 °F 52% 30.03 in 10.0 mi ESE 9.2 mph 17.3 mph N/A Thunderstorm Mostly Cloudy
6:56 PM 63.0 °F 45.9 °F 54% 29.83 in 10.0 mi SE 8.1 mph - N/A Thunderstorm Mostly Cloudy
7:11 PM 64.4 °F 44.6 °F 49% 30.02 in 8.0 mi East 3.5 mph - N/A   Scattered Clouds
7:29 PM 62.6 °F 46.4 °F 55% 30.02 in 8.0 mi ENE 5.8 mph - 0.00 in Rain , Thunderstorm Light Thunderstorms and Rain
7:45 PM 60.8 °F 50.0 °F 68% 30.04 in 9.0 mi NW 8.1 mph - 0.00 in Rain , Thunderstorm Light Thunderstorms and Rain
7:56 PM 59.0 °F 52.0 °F 78% 29.86 in 5.0 mi WNW 9.2 mph - 0.01 in Rain , Thunderstorm Light Thunderstorms and Rain
8:06 PM 57.2 °F 53.6 °F 88% 30.04 in 4.0 mi West 8.1 mph - 0.01 in Rain Light Rain
8:56 PM 56.8 °F 52.0 °F 84% 29.85 in 8.0 mi SSE 4.6 mph - 0.02 in Rain Light Rain
9:34 PM 55.4 °F 53.6 °F 94% 30.06 in 5.0 mi Calm Calm - 0.01 in Rain Light Rain
9:56 PM 56.8 °F 52.9 °F 87% 29.85 in 6.0 mi WSW 4.6 mph - 0.01 in Rain Light Rain
10:56 PM 55.9 °F 54.0 °F 93% 29.84 in 7.0 mi NE 3.5 mph - 0.02 in Rain Light Rain
11:56 PM 54.9 °F 52.9 °F 93% 29.83 in 9.0 mi SSE 4.6 mph - 0.00 in   Mostly Cloudy